Location: Biltmore Gardens
(41.6070°N, 83.4666°W)
Time: 15:19:07
(UTC+00:00)

Cosmos 2369 Rocket - Pass Details

Date: 14 July 2020
Orbit: 829 x 852 km, 71.0° (Epoch: 12 August)

Event Time Altitude Azimuth Distance (km) Brightness Sun altitude
Rises 04:24:02 0° 337° (NNW) 3,383 6.8 -24.4°
Reaches altitude 10° 04:26:28 10° 339° (NNW) 2,447 5.7 -24.5°
Maximum altitude 04:32:05 77° 65° (ENE) 860 2.1 -24.9°
Enters shadow 04:32:57 63° 128° (SE) 927 2.1 -24.9°
